Regional Weather Roundup
Issued by NWS

Home | Current Version | Previous Version | Graphics & Text | Print | Product List | Glossary On
Versions: 1 2 3 4 5 6 7 8 9 10 11 12 13 14 15 16 17 18 19 20 21 22 23 24 25 26 27 28 29 30 31 32 33 34 35 36 37 38 39 40 41 42 43 44 45 46 47 48 49 50
000
ASUS43 KMKX 251611
RWRWI

WISCONSIN REGIONAL WEATHER ROUNDUP
NATIONAL WEATHER SERVICE MILWAUKEE/SULLIVAN WI
1100 AM CDT SUN SEP 25 2016

NOTE: "FAIR" INDICATES FEW OR NO CLOUDS BELOW 12,000 FEET WITH NO
SIGNIFICANT WEATHER AND/OR OBSTRUCTIONS TO VISIBILITY.

WIZ001-002-006>008-014>016-023>028-251700-
NORTHWEST WISCONSIN

CITY           SKY/WX    TMP DP  RH WIND       PRES   REMARKS
SUPERIOR ARPT  LGT RAIN  66  65  99 S5        29.79F
ASHLAND        CLOUDY    65  62  90 S7        29.84F
HAYWARD        RAIN      64  62  93 S12G18    29.85F FOG
SIREN          CLOUDY    63  60  93 SW7       29.86F
CUMBERLAND     LGT RAIN  61  59  94 SW8       29.88S
RICE LAKE      RAIN      64  61  92 SW14G20   29.90R
CHETEK         NOT AVBL
LADYSMITH      CLOUDY    64  63  94 S9G17     29.91F FOG
EAU CLAIRE     CLOUDY    67  65  93 S12       29.88F
MENOMONIE      CLOUDY    65  65  99 W12       29.90R
NEW RICHMOND   MOSUNNY   63  62  94 SW10      29.88F
OSCEOLA        CLOUDY    64  55  73 SW12      29.91S
$$

WIZ003>005-009-010-017-018-251700-
NORTH CENTRAL WISCONSIN

CITY           SKY/WX    TMP DP  RH WIND       PRES   REMARKS
MANITOWISH WTR NOT AVBL
ARBOR VITAE    CLOUDY    62  61  96 SE8       29.94F FOG
WOODRUFF       CLOUDY    62  61  96 SE8       29.94F FOG
RHINELANDER    CLOUDY    62  62 100 SE9       29.97F
EAGLE RIVER    HVY RAIN  60  60 100 SE7       29.97S
LAND O LAKES   HVY RAIN  62  61  96 S7        29.99S
PHILLIPS       DRIZZLE   62  62 100 S8        29.91F
TOMAHAWK       CLOUDY    61  60  95 SE3       29.96F FOG
MEDFORD        LGT RAIN N/A N/A N/A SE9       29.94F
MERRILL        CLOUDY    62  62 100 CALM      29.97F FOG
$$

WIZ029-030-035-036-043>047-251700-
CENTRAL WISCONSIN

CITY           SKY/WX    TMP DP  RH WIND       PRES   REMARKS
WAUSAU         CLOUDY    63  61  93 SE6       29.96R FOG
MOSINEE        CLOUDY    63  63 100 S6        29.98F FOG
MARSHFIELD     RAIN      66  63  90 S10       29.95F FOG
STEVENS POINT  LGT RAIN  64  64 100 CALM      29.97F
WAUPACA        PTSUNNY   73  67  81 SE13      29.97F
WAUTOMA        CLOUDY    73  66  78 S10       29.97F
WISC RAPIDS    RAIN      67  66  97 SW3       29.97S FOG
CAMP DOUGLAS   CLOUDY    72  67  83 S7        29.95S
$$

WIZ011>013-019>022-031-037>040-048>050-251700-
NORTHEAST WISCONSIN

CITY           SKY/WX    TMP DP  RH WIND       PRES   REMARKS
ANTIGO         HVY RAIN  60  60 100 SE5       29.99S VSB 1
SHAWANO        CLOUDY    72  65  79 SE12      29.98F
OCONTO         NOT AVBL
STURGEON BAY   CLOUDY    67  62  84 SE17G25   30.03F
GREEN BAY      CLOUDY    70  66  87 SE16      30.00F
MANITOWOC      PTSUNNY   69  62  78 S17G24    30.04F
APPLETON       PTSUNNY   70  63  78 SE16      29.99F
CLINTONVILLE   NOT AVBL
OSHKOSH        CLOUDY    74  65  73 S14G21    29.99F
$$

WIZ032>034-041-042-053>061-251700-
SOUTHWEST WISCONSIN

CITY           SKY/WX    TMP DP  RH WIND       PRES   REMARKS
LA CROSSE      CLOUDY    70  67  90 S10       29.92F FOG
SPARTA         CLOUDY    68  66  91 S6        29.94F
VIROQUA        CLOUDY    70  68  94 SW8       29.97S
BOSCOBEL       PTSUNNY   76  67  73 SW7       29.96S
PRAIRIE DU CHI CLOUDY    73  66  79 S5        29.96S
PLATTEVILLE    PTSUNNY   74  70  88 S12       29.99S
$$

WIZ056-057-062-063-064-067-068-251700-
SOUTH CENTRAL WISCONSIN

CITY           SKY/WX    TMP DP  RH WIND       PRES   REMARKS
REEDSBURG      NOT AVBL
BARABOO/DELLS  MOSUNNY   75  65  70 S13G18    29.96F
LONE ROCK      CLOUDY    74  68  81 W3        29.97R HAZE
MINERAL POINT  CLOUDY    75  70  83 S10       29.99R
MADISON        CLOUDY    75  67  76 S13       29.98F
MIDDLETON      CLOUDY    76  69  77 S9G17     29.98F
WATERTOWN      MOSUNNY   73  68  82 S9        30.01F
MONROE         SUNNY     77  68  73 SE13      29.99F
JANESVILLE     PTSUNNY   75  66  73 SE12      30.01S
$$

WIZ051-052-058>065-066-070>072-251700-
SOUTHEAST WISCONSIN

CITY           SKY/WX    TMP DP  RH WIND       PRES   REMARKS
MILWAUKEE      PTSUNNY   72  62  71 S12       30.05F
WAUKESHA       SUNNY     72  63  73 SE12      30.04F
MILWAUKEE/TIMM SUNNY     72  61  68 SE7       30.05F
RACINE         SUNNY     70  60  70 SE17G23   30.07F
BURLINGTON     SUNNY     73  63  69 S5        30.03F
KENOSHA        SUNNY     71  62  73 S9        30.05F
FOND DU LAC    CLOUDY    74  65  73 S15       30.00F
SHEBOYGAN      PTSUNNY   70  62  76 S18G25    30.04F
WEST BEND      CLOUDY    72  63  73 SE7       30.03F
JUNEAU         MOSUNNY   72  65  80 SE10      30.02F
$$

LSZ147-162-251700-
LAKE SUPERIOR

STATION/POSITION TIME  TEMP    WIND        PRES    WAVE
                       AIR SEA DIR/SP/G            HT/PER
                 (UTC) (F)     (DEG/KT/KT) (MB)    (FT/S)
W MID LAKE BUOY  1550   63 62  160/ 19/ 21 1010.4F   2/ 4
DEVILS ISLAND    1600   64     160/ 12/ 18 1010.0F
SAXON HARBOR     1540   67     180/  9/ 16 1010.8F
$$

LMZ867-665-643>646-251700-
LAKE MICHIGAN

STATION/POSITION TIME  TEMP    WIND        PRES    WAVE
                       AIR SEA DIR/SP/G            HT/PER
                 (UTC) (F)     (DEG/KT/KT) (MB)    (FT/S)
CHAMBERS ISLAND  1500   66     140/  5/ 11 1016.9F
S GREEN BAY BUOY 1600   67 66  170/ 14/ 17 1015.6F
N MID LAKE BUOY  1550   64 67  160/ 17/ 19 1017.6F   4/ 5
NORTHPORT PIER   1500   65     150/ 14/ 20 1017.9F
SISTER BAY       1538   66     180/ 18/ 28   N/A
KEWAUNEE LAKESHO 1500   65     160/ 17/ 20 1017.4F
SHEBOYGAN LAKESH 1600   64     170/ 13/ 14 1016.9F
PORT WASHINGTON  1500   65     170/  5/  7 1018.6F
ATWATER BUOY     1600   63 54  150/ 16/ 19 1017.1F
MILWAUKEE LAKESH 1510   64     150/ 15/ 17   N/A
S MID LAKE BUOY  1550   68 72  140/ 19/ 21 1017.8F   4/ 5
KENOSHA   LAKESH 1600   65     160/ 15/ 17 1017.3F
$$

TC  - TEMPERATURE IN CELSIUS
VSB - VISIBILITY IN STATUTE MILES
WCI - WIND CHILL INDEX
HX  - HEAT INDEX




USA.gov is the U.S. government's official web portal to all federal, state and local government web resources and services.